RH
14 20 24 28 36 46 53 52 42 41 39 38 35 35 35 38 45 44 38 37 35 35 34 34 31 28 24 23 21 20 18 18 17 14 10 6 5 7 9 10 10 11 13 14 13 13 11 8 6
20 26 30 40 49 57 51 45 43 40 39 37 36 36 34 34 38 36 36 33 35 36 35 32 29 26 24 24 24 22 20 18 18 18 15 11 9 10 14 12 10 10 13 18 21 21 19 16 11
22 26 36 47 54 58 49 42 39 36 34 36 32 32 32 32 33 35 34 33 37 37 34 32 29 26 26 27 28 25 21 18 17 17 16 13 13 19 23 20 15 14 18 25 25 26 27 24 19
27 29 36 47 53 52 45 40 39 34 31 32 33 33 32 33 35 36 35 35 38 38 35 32 30 28 27 28 28 28 26 22 16 13 16 18 28 28 32 30 25 24 22 26 28 28 29 28 28
30 35 41 46 45 44 42 39 37 35 33 33 34 36 35 36 39 39 36 37 39 36 33 33 33 32 30 29 29 29 28 28 23 15 14 21 29 27 31 29 37 33 29 28 29 27 24 30 31
35 39 45 44 38 34 33 35 38 37 39 39 37 36 34 36 39 38 38 39 39 36 35 35 36 35 33 30 30 29 28 27 26 21 18 21 22 27 30 31 32 31 34 31 32 29 26 24 29
38 43 42 38 35 34 32 34 35 37 40 41 39 37 35 36 37 39 38 39 39 38 37 37 37 34 33 29 30 29 28 27 25 22 20 25 28 31 32 29 29 29 31 31 31 31 31 29 31
41 46 43 42 35 34 30 32 33 36 38 40 39 38 37 38 39 40 39 42 40 40 37 36 35 34 32 31 32 31 30 28 26 24 24 27 32 35 35 32 29 29 31 35 38 36 34 34 36
45 46 44 37 37 32 33 34 33 35 36 38 40 39 40 41 43 42 42 43 41 42 38 38 38 35 33 34 35 32 32 30 26 26 26 30 33 36 32 31 32 36 38 39 39 37 33 32 32
47 48 43 34 34 32 35 36 36 35 35 34 38 40 45 44 41 39 41 40 41 40 39 40 38 38 33 30 32 33 33 30 27 27 27 33 39 40 40 43 44 46 47 49 48 48 40 37 33
45 44 37 36 35 36 35 34 37 35 35 36 40 42 45 44 41 40 38 39 38 39 41 39 38 36 32 31 30 33 32 30 30 30 31 39 45 47 49 52 52 50 56 59 58 52 54 62 51
47 42 39 35 36 37 35 35 33 35 35 39 42 46 45 43 40 37 34 36 37 39 41 39 41 37 35 33 30 32 33 35 32 32 37 44 51 60 60 63 60 61 64 66 65 63 52 52 51
46 42 39 40 38 34 34 34 35 33 33 40 45 45 43 40 36 33 33 32 35 38 42 42 41 38 36 34 32 32 35 33 35 36 41 47 56 67 72 73 71 71 72 70 71 67 62 57 56
42 43 41 40 38 33 34 35 36 30 34 38 44 44 41 37 34 32 32 31 33 36 37 44 48 45 40 36 35 35 34 36 37 40 44 50 63 71 75 78 80 80 77 72 66 66 65 65 59
39 40 40 37 32 30 31 35 30 29 31 40 40 39 37 34 32 28 30 31 30 34 41 44 50 47 41 37 36 35 36 38 37 40 46 59 73 75 79 86 85 82 79 70 65 58 58 60 59
39 39 39 32 30 30 33 32 26 27 32 37 36 32 31 28 25 28 30 31 30 35 38 38 38 40 41 37 39 39 39 38 39 43 49 63 74 80 84 87 85 84 76 73 70 64 63 64 62
41 39 38 33 31 31 32 32 28 22 33 33 30 29 30 27 27 28 28 30 31 33 34 38 41 36 39 38 40 44 43 37 39 45 54 72 77 82 90 91 86 81 74 76 72 69 70 72 69
41 41 39 35 34 34 34 34 30 22 33 31 30 31 31 27 27 24 25 28 32 38 39 39 41 33 36 42 44 44 39 35 38 45 68 85 89 91 94 92 88 81 79 76 74 71 72 75 74
43 41 37 36 33 33 35 36 31 22 33 32 30 29 26 24 22 23 25 26 33 40 43 42 41 34 43 43 43 39 33 33 38 52 72 83 89 92 90 90 90 83 76 74 72 68 68 74 76
42 40 36 34 34 36 38 38 28 19 30 32 29 28 26 27 26 26 27 30 38 41 41 42 37 40 44 42 41 33 30 32 43 57 75 74 77 79 85 89 88 77 73 71 68 64 66 69 70
39 40 36 36 38 40 43 37 26 21 30 29 27 26 28 27 28 25 30 32 38 45 41 40 38 41 41 42 35 28 27 35 45 58 66 70 80 80 85 89 77 72 70 65 61 66 65 71 72
38 36 38 41 45 46 47 49 28 21 27 27 24 24 23 25 26 27 30 35 42 37 38 35 41 39 40 35 29 24 29 42 45 55 58 66 79 76 84 75 72 70 65 57 64 60 79 81 75
30 33 40 38 44 50 41 41 26 24 28 23 26 24 23 22 21 26 31 30 32 36 33 36 41 41 37 30 22 28 38 48 46 48 51 73 77 77 77 72 69 72 61 52 58 75 79 80 81
22 32 44 52 51 50 36 33 24 24 22 23 25 24 21 21 21 27 28 30 29 31 34 40 42 37 31 21 24 35 45 45 46 46 69 74 72 82 68 68 74 70 70 62 68 72 76 73 73
25 35 52 55 54 47 25 29 18 24 25 26 24 22 23 26 22 26 28 25 29 34 38 40 35 29 20 21 30 42 44 46 47 65 68 63 72 70 60 75 76 71 76 72 72 74 75 72 73
23 26 46 48 47 39 28 30 19 20 26 24 24 24 25 27 26 29 29 27 31 34 37 35 26 19 19 27 41 40 46 49 65 69 65 65 62 61 71 75 74 74 74 74 76 76 72 71 74
21 28 25 41 40 43 41 25 16 22 24 24 23 26 29 30 29 30 30 29 32 37 33 23 19 19 24 38 43 43 49 65 70 68 64 54 51 66 69 71 72 72 74 76 74 75 75 77 78
20 19 26 30 41 40 36 29 24 22 24 24 30 28 30 32 33 32 28 29 32 30 23 20 20 22 30 36 43 48 59 70 68 76 69 51 46 62 69 71 70 70 73 78 82 82 79 77 76
22 25 24 24 34 40 40 30 20 23 25 27 29 30 34 31 36 30 27 29 26 25 20 19 21 27 29 37 50 53 63 65 64 73 69 55 40 50 64 69 72 67 70 81 82 78 78 76 75
18 17 21 24 34 31 32 30 22 23 25 28 30 31 36 35 30 29 27 28 24 20 18 17 22 25 27 38 51 55 62 64 66 71 64 54 47 39 58 64 68 69 76 78 78 76 87 85 81